Tracking 29892 objects as of 21-Nov-2024
HD Live streaming from Space Station
objects crossing your sky now

OBJECT B

Track OBJECT B now!
10-day predictions


NORAD ID: 61239
Int'l Code: 2024-174B
Perigee: 510.3 km
Apogee: 533.8 km
Inclination: 97.5 °
Period: 94.9 minutes
Semi major axis: 6893 km
RCS: Unknown
Launch date: September 24, 2024
Source: People's Republic of China (PRC)
Launch site: Jiuquan Satellite Launch Center, China (JSC)
Your satellite tracking list
Your tracking list is empty




NASA's NSSDC Master Catalog

Two Line Element Set (TLE):
1 61239U 24174B   24326.08861938  .00010726  00000-0  54381-3 0  9999
2 61239  97.4539 330.4226 0017103  85.7143 274.6045 15.17000041  8656
Source of the keplerian elements: AFSPC